SLUC weather

Cuevo Airport
Cordillera, Santa Cruz Department, Bolivia

Public forecast

Using degrees Celsius for public forecast. Weather courtesy of forecast.io.

METAR (pilot weather report)

Report is more than 2 hours old.

Closest report is Camiri Airport, 28.5 nm (52.7 km) N. Retrieved 2019/07/17 23:00 UTC (3 hours ago):

SLCA 172300Z 00000KT 9999 OVC070 18/15 Q1020

TAF (pilot weather forecast)

Forecast is more than 12 hours old.

Closest forecast is Yacuiba Airport, 89.2 nm (165.1 km) S. Retrieved 2019/05/06 00:28 UTC (2 months ago):

TAF SLYA 062200Z 0700/0724 00000KT 9999 SCT015 SCT070 TX25/0719Z TN16 /0711Z BECMG 0704/0706 5000 DZ BKN005 BKN070 BECMG 0711/0713 9999 NSW SCT010 BKN070